Weather in Komarovka

Russia / Kursk Oblast     51°19′09″N   34°47′19″E
temp.,
°C
wind,
m/s
gust,
m/s
humid.,
%
clouds,
%
prec.,
mm/h
press.,
hPa
HPBL,
m
29 june, wed
wed2900:00+19ne488996 0.1 1018147
03:00+18e369468 0.1 1019110
06:00+19e259292 0.0 1019146
09:00+22e4572100 0.0 1019444
12:00+25e4555100 0.0 1019880
15:00+25e335453 0.2 10191205
18:00+24ene3467100 0.0 1018299
21:00+20e3382100 0.0 101738
30 june, thu
thu3000:00+17ssw1193100 1.6 101818
03:00+17e3497100 4.4 1017110
06:00+16se3797100 6.3 1017262
09:00+16sse3594100 9.4 1018320
12:00+20se227696 0.2 1018849
15:00+21sw017246 0.7 1018747
18:00+22nw23684 0.3 1017771
21:00+17ne338099 0.4 101838
1 july, fri
fri100:00+16ne227495 0.0 101933
03:00+14nne22815 0.0 101922
06:00+14n34820 0.0 101991
09:00+20n57650 0.0 1019508
12:00+23nne68525 0.0 10191469
15:00+23ne68485 0.0 10191899
18:00+24nne375872 0.0 10191975
21:00+18ne33760 0.0 102025
2 july, sat
sat200:00+15e33860 0.0 102133
03:00+13se22830 0.0 102128
06:00+15sw11800 0.0 102213
09:00+20wsw11635 0.0 1022396
12:00+23nw22565 0.0 10211174
15:00+25nw34505 0.0 10201912
18:00+25nw35593 0.0 10191401
21:00+20nw33780 0.0 101939
3 july, sun
sun300:00+18nw34795 0.0 101953
03:00+17wnw47895 0.0 1019119
06:00+18nw3892100 0.3 1019178
09:00+23nw577135 0.3 1018507
12:00+27nw56575 0.0 10171204
15:00+28nw555270 0.0 10172250
18:00+26nw466349 0.1 1016371
21:00+18ne2291100 2.4 101727